www.pogodaiklimat.ru

Погода и климат >> Архив погоды >> Россия >> Якутия >> Охотский Перевоз


ПОГОДА в Охотском Перевозе

  • Прогноз погоды в Охотском Перевозе
  • Монитор погоды в Охотском Перевозе
  • Климат города

АРХИВ ПОГОДЫ в Охотском Перевозе

Время (UTC), дата Ветер
(напр.,м/с)
 
Видим.   Явления Облачность Т
(С)
Тd
(С)
f
(%)
Тe
(С)
Тes
(С)
Комфортность P
(гПа)
Po
(гПа)
Тmin
(С)
Tmax
(С)
R
(мм)
R24
(мм)
S
(см)
18 12.07 ЮЗ 1 10 км дым 8/8 1000 м
[Sc]
+17.4 +15.9 91 +18 +18 999.5 983.1
21 12.07 СЗ 1 20 км {ливн. осадки} 8/8 600 м
[Cb calv]
+17.7 +15.8 89 +19 +19 999.6 983.2 +17.0 0.0
00 13.07 Ю 1 20 км {ливн. осадки} 10/9 1000 м
[Cu Sc]
+22.6 +15.3 63 +26 +27 жарко 999.4 983.4
03 13.07 С 1 10 км дым 10/8 1000 м
[Sc As op]
+23.5 +17.9 71 +28 +28 душно 999.4 983.4
06 13.07 ЮВ 1 10 км дым 10/3 600 м
[Cu med, cong Cs]
+26.4 +18.2 61 +31 +37 душно 998.9 983.1
09 13.07 С 2 10 км дым 9/1 600 м
[Cu med, cong As trans Cs]
+26.5 +17.1 56 +30 +31 душно 998.8 983.0 +27.4
12 13.07 С 1 10 км дым 10/0
[Ac As]
+23.8 +18.9 74 +29 +29 душно 998.9 983.0
15 13.07 С 1 4000 м гроза без осадков {ливн. осадки} 8/4 600 м
[Cb cap Ac cuf]
+20.3 +17.7 85 +25 +25 комфорт 999.4 983.3
18 13.07 ЮВ 2 10 км гроза без осадков {ливн. осадки} 10/10 600 м
[Cb cap]
+18.9 +18.1 95 +21 +21 комфорт 1000.5 984.2
21 13.07 С 2 20 км {гроза} 9/3 600 м
[Cb cap Ac cuf Ci fib]
+21.0 +15.8 72 +25 +26 комфорт 1000.6 984.5 +18.5 4
00 14.07 Ю 2 20 км {гроза} 9/4 1000 м
[Sc Ac As]
+22.8 +16.6 68 +27 +30 душно 1000.6 984.6
03 14.07 Ю 4 20 км 10/4 600 м
[Cb calv Ac As]
+24.0 +17.1 65 +28 +29 душно 1001.0 985.1
06 14.07 С 4 20 км 9/1 600 м
[Cb calv Ac As]
+24.6 +16.9 62 +28 +30 душно 1000.9 985.0
09 14.07 СВ 3 20 км 10/1 600 м
[Cb calv As op]
+23.3 +18.7 75 +29 +30 душно 1001.1 985.1 +26.8
12 14.07 СВ 3 20 км 10/5 600 м
[Cb calv As op]
+20.9 +19.2 90 +26 +26 душно 1002.2 986.1
15 14.07 СВ 3 10 км 10/10 600 м
[Cb cap]
+19.9 +18.3 90 +23 +23 комфорт 1002.8 986.6
18 14.07 СВ 3 10 км 9/9 600 м
[Cu Sc]
+19.7 +17.6 88 +23 +23 комфорт 1002.7 986.5
21 14.07 Ю 1 20 км 10/10 600 м
[Cb cap]
+20.0 +16.7 81 +24 +24 комфорт 1003.3 987.1 +19.5
00 15.07 Ю 7 20 км {ливн. осадки} 10/8 600 м
[Cu Sc As op]
+20.8 +16.8 78 +24 +24 комфорт 1003.7 987.5
03 15.07 Ю 4 20 км 9/6 600 м
[Sc diur, vesp Ci fib]
+25.0 +16.6 60 +29 +32 душно 1003.5 987.5
06 15.07 ЮВ 3 20 км 8/6 600 м
[Cu med, cong Ci fib]
+27.0 +16.9 54 +31 +33 душно 1003.1 987.3
09 15.07 Ю 5 20 км гроза без осадков 6/6 600 м
[Cb calv]
+27.9 +16.7 51 +32 +32 душно 1001.2 985.5 +28.6 0.4
12 15.07 З 1 20 км гроза без осадков 8/4 600 м
[Cb calv Ci fib]
+23.5 +16.5 65 +27 +27 душно 1004.4 988.3
15 15.07 ЮЗ 2 4000 м гроза, ливневой дождь 9/9 600 м
[Cb calv]
+18.5 +17.9 96 +20 +20 1006.1 989.8
18 15.07 Ю 2 10 км в посл. час ливневой дождь {гроза} 9/9 600 м
[Cb calv]
+19.9 +13.5 67 +22 +22 комфорт 1006.3 990.0
21 15.07 Ю 3 20 км 9/9 1000 м
[Cb calv]
+19.8 +12.1 61 +22 +22 комфорт 1006.6 990.3 +18.5 3
00 16.07 Ю 3 20 км {ливн. осадки} 10/10 1000 м
[Cu Sc]
+17.4 +13.7 79 +17 +17 1007.8 991.3
03 16.07 Ю 3 20 км в посл. час ливневой дождь 10/10 600 м
[Cb calv]
+18.8 +14.3 75 +20 +20 1007.5 991.2
06 16.07 Ю 1 10 км слабый ливневой дождь 10/6 600 м
[Cb calv As op]
+19.4 +16.8 85 +22 +23 комфорт 1006.5 990.2
09 16.07 Ю 2 20 км 9/9 1000 м
[Sc]
+21.6 +17.4 77 +26 +26 душно 1005.3 989.1 +21.6 4
12 16.07 Ю 2 20 км 10/10 600 м
[Cb cap]
+21.3 +17.4 78 +25 +25 комфорт 1004.9 988.7
15 16.07 СЗ 2 10 км в посл. час ливневой дождь 10/10 600 м
[Cb cap]
+18.9 +17.8 93 +21 +21 комфорт 1005.9 989.6
18 16.07 штиль 0 10 км {ливн. осадки} 10/8 600 м
[Cb cap As op]
+17.1 +16.9 99 +17 +17 1006.3 989.8
21 16.07 штиль 0 20 км 10/10 1000 м
[Sc]
+18.0 +17.0 94 +18 +18 1006.6 990.2 +16.9 0.6
00 17.07 В 1 20 км 6/3 600 м
[Cu med, cong Cc]
+20.3 +15.8 75 +24 +31 комфорт 1006.4 990.2
03 17.07 С 2 20 км 1/1 600 м
[Cu med, cong]
+22.7 +16.7 69 +27 +39 душно 1005.8 989.7
06 17.07 СВ 2 20 км 10/0
[Cs]
+24.6 +16.3 60 +28 +35 душно 1004.2 988.2
09 17.07 С 2 20 км 10/0
[Cs]
+24.8 +15.6 57 +28 +30 жарко 1003.3 987.4 +25.4
12 17.07 СВ 3 20 км 10/1 600 м
[Cb calv Ac As]
+22.5 +18.0 76 +28 +28 душно 1002.3 986.3
15 17.07 С 4 4000 м гроза, ливневой дождь 10/8 600 м
[Cb calv As op]
+19.7 +17.8 89 +22 +22 комфорт 1002.0 985.8
18 17.07 С 1 10 км {гроза, ливн. осадки} 10/10 1000 м
[Sc]
+17.4 +17.2 99 +18 +18 1002.5 986.1
21 17.07 СЗ 2 20 км 10/8 600 м
[Frnb As op]
+16.9 +16.4 97 +17 +17 1002.4 986.0 +16.7 19
00 18.07 С 2 20 км 10/0
[As op]
+17.2 +16.5 96 +18 +19 1002.5 986.1
03 18.07 штиль 0 20 км в посл. час дождь 10/8 600 м
[Frnb As op]
+18.4 +17.1 92 +19 +20 1002.6 986.3
06 18.07 СЗ 2 10 км дым {дождь} 10/4 600 м
[Frnb As op]
+19.5 +13.2 67 +22 +23 комфорт 1002.9 986.6
09 18.07 З 2 20 км 5/3 600 м
[Cu hum Ac As]
+18.5 +10.5 60 +19 +21 1004.4 988.0 +20.7 0.3
12 18.07 З 2 20 км 5/3 1000 м
[Sc diur, vesp Ci fib]
+17.2 +4.6 43 +18 +18 1006.5 990.0
15 18.07 В 2 4000 м мгла 8/8 1000 м
[Sc]
+10.4 +7.0 79 +9 +9 1008.9 992.0
18 18.07 СЗ 1 10 км 3/3 1000 м
[Sc]
+8.4 +7.1 92 +8 +8 1010.7 993.6
21 18.07 20 км 4/0
[]
+7.7 +5.7 87 1012.2 995.1 +6.6
00 19.07 СЗ 2 20 км ясно +13.5 +6.7 63 +13 +22 1013.1 996.3
03 19.07 СВ 3 20 км ясно +18.2 +5.2 42 +18 +29 996.5 997.0
06 19.07 С 2 50 км ясно +20.0 +5.1 38 +21 +30 комфорт 1012.4 996.0
09 19.07 С 3 50 км ясно +20.4 +5.5 38 +22 +23 комфорт 1011.6 995.2 +20.6
12 19.07 С 1 20 км ясно +15.2 +7.6 60 +16 +16 1012.4 995.7

 

Местоположение метеостанции Охотский Перевоз (Якутия, Россия): широта 61.87 долгота 135.50 высота над уровнем моря 141 м.

В архиве по умолчанию представлена погода в Охотском Перевозе за последнюю неделю. Архивные данные за месяц целиком и за предыдущие месяцы, начиная с января 2011 года, Вы можете получить, выбрав интересующий диапазон дат из раскрывающегося списка и нажав кнопку "Ввод!".


*Определитесь, кто Вы:
робот инопланетянин человек

Внимание! Время в таблицах - всемирное. Для получения местного времени необходимо прибавить поправку, которая в Охотском Перевозе равна 9 ч.

Смотрите также архив погоды в соседних городах и на ближайших метеорологических станциях:

Погода в Ытык-Кюёле (Якутия, Россия) (118 км)
Погода в Крест-Хальджае (Якутия, Россия) (120 км)
Погода в Теплом Ключе (Якутия, Россия) (121 км)
Погода в Чурапче (Якутия, Россия) (153 км)
Погода в Усть-Мае (Якутия, Россия) (179 км)
Погода в Амге (Якутия, Россия) (220 км)
Погода в Томпо (Якутия, Россия) (232 км)
Погода в Верхоянском Перевозе (Якутия, Россия) (241 км)
Погода в Восточной (Якутия, Россия) (259 км)
Погода в Югоренке (Якутия, Россия) (260 км)

Пояснения к столбцам:

Ветер - указаны скорость ветра в м/с - средняя за 10 мин, порывы в срок и между сроками (в фигурных скобках) и направление, откуда дует ветер: С - северный, СВ - северо-восточный, В - восточный, ЮВ - юго-восточный, Ю - южный, ЮЗ - юго-западный, З - западный, СЗ - северо-западный.
Видимость - горизонтальная дальность видимости в метрах или километрах. При видимости от 1 до 10 км при отсутствии осадков обычно наблюдается дымка, при ухудшении видимости до 1 км и менее - туман. В сухую погоду видимость может ухудшаться дымом, пылью или мглою.
Явления - указаны атмосферные явления, наблюдавшиеся в срок или в последний час перед сроком; фигурными скобками обозначены явления, наблюдавшиеся между сроками (за 1-3 часа до срока); квадратными скобками обозначены град или гололедные отложения с указанием их диаметра в мм.
Облачность - указаны через наклонную черту общая и нижняя облачность в баллах и высота нижней границы облаков в метрах; квадратными скобками обозначены формы облаков: Ci - перистые, Cs - перисто-слоистые, Cc - перисто-кучевые, Ac - высококучевые, As - высокослоистые, Sc - слоисто-кучевые, Ns - слоисто-дождевые, Cu - кучевые, Cb - кучево-дождевые. Подробнее классификацию облаков см. в Атласе облаков (PDF).
T - Температура воздуха - температура, измеренная на высоте 2 м над землей.
Td - Температура точки росы - температура, при понижении до которой содержащийся в воздухе водяной пар достигнет насыщения.
f - Относительная влажность воздуха - влажноcть воздуха, измеренная на высоте 2 м над землей.
Te - Эффективная температура - температура, которую ощущает одетый по сезону человек в тени. Характеристика душности погоды. При расчете учитывается влияние влажности воздуха и скорости ветра на теплоощущения человека.
Tes - Эффективная температура на солнце - температура, которую ощущает человек, с поправкой на солнечный нагрев. Характеристика знойности погоды. Зависит от высоты солнца над горизонтом, облачности и скорости ветра. Ночью, в пасмурную погоду, а также при ветре 12 м/с и более поправка равна нулю.
P - Атмосферное давление - приведенное к уровню моря атмосферное давление.
Po - Атмосферное давление - измеренное на уровне метеостанции атмосферное давление.
Tmin - Минимальная температура - минимум температуры воздуха на высоте 2 м над землей.
Tmax - Максимальная температура - максимум температуры воздуха на высоте 2 м над землей.
R - Количество осадков - Количество выпавших осадков за период времени, мм. При наведении курсора мыши на число - период времени, за который выпало указанное количество осадков.
R24 - Количество осадков - Количество выпавших осадков за 24 часа, мм.
S - Снежный покров - Высота снежного покрова, см. При наведении курсора мыши на число - состояние снежного покрова и степень покрытия местности в баллах.